Probability
55 55 52 52 58 61 61 65 65 65 61 58 48 52 52 52 48 42 42 42 42 42 45 45 45 48 48 45 52 52 52 48 45 45 48 42 42 48 29 32 29 26 16
58 52 52 52 55 58 61 65 65 65 61 65 58 58 52 52 52 45 42 39 39 39 39 42 39 32 48 45 48 48 48 48 42 39 39 39 35 42 35 39 26 23 23
55 55 52 55 55 55 61 58 61 58 55 61 58 52 55 52 45 42 32 32 29 29 32 32 32 32 39 39 42 39 45 39 45 35 32 42 35 32 32 32 29 29 19
52 52 52 52 52 52 52 58 55 55 55 55 58 61 52 52 42 35 39 35 32 32 29 29 29 29 32 35 29 35 35 39 39 35 35 26 26 29 29 32 23 26 26
55 52 55 58 58 58 58 58 58 55 52 61 58 58 55 39 35 42 39 29 32 32 32 32 26 23 23 19 23 32 35 45 39 39 35 26 29 29 26 29 23 23 26
55 61 58 58 58 58 61 61 61 55 55 55 55 55 48 42 29 19 32 35 42 39 35 32 23 23 19 16 13 13 23 32 29 35 29 29 26 26 26 23 26 26 19
52 55 55 58 55 58 55 58 52 55 55 52 52 45 48 39 19 13 6 32 35 35 35 35 19 23 23 29 16 3 3 3 6 32 29 29 29 29 26 26 29 26 23
48 52 52 52 55 52 52 52 61 61 55 55 52 48 45 39 26 13 6 23 29 32 32 35 32 29 26 26 32 26 26 23 19 13 32 32 32 32 32 32 26 26 26
48 48 52 55 48 52 48 52 55 58 58 52 55 52 48 35 23 16 0 29 39 35 29 29 29 29 26 19 23 32 35 29 19 13 16 19 6 10 13 23 23 23 13
48 45 45 48 48 48 52 58 48 55 48 48 42 42 42 39 29 16 0 26 35 39 35 29 26 23 26 16 23 29 29 29 26 23 16 6 6 10 3 13 19 19 19
45 48 52 48 48 45 52 58 55 55 52 45 42 45 48 48 29 19 6 26 39 39 29 29 26 16 10 6 13 23 23 26 29 26 29 29 29 19 19 10 16 16 19
48 52 52 48 45 45 45 58 52 55 45 45 45 45 45 42 35 23 6 3 10 39 39 26 26 3 0 0 0 10 3 0 23 23 29 29 26 23 23 19 16 19 19
48 48 48 48 45 45 45 45 45 48 45 42 45 45 45 42 35 16 6 0 0 6 29 16 3 0 0 0 0 0 0 3 16 10 16 23 23 23 19 19 23 23 23
45 45 42 39 39 42 39 35 32 32 32 32 42 39 35 39 32 29 23 10 3 0 3 3 0 0 0 3 3 0 0 6 16 13 16 19 19 19 19 19 16 16 19
42 35 35 26 29 35 29 26 29 29 26 26 29 29 32 32 23 10 10 6 13 16 10 10 13 13 10 16 10 10 13 13 6 19 19 23 19 19 19 19 16 16 19
35 35 26 23 26 26 26 23 13 13 16 13 16 19 16 13 13 0 0 0 0 3 6 13 13 16 16 16 13 16 13 13 16 19 19 19 16 13 16 16 16 19 19
29 29 23 23 23 26 23 26 29 13 10 13 6 3 3 0 0 0 0 0 0 0 6 10 13 13 13 13 16 16 13 13 13 16 19 19 19 16 16 16 19 16 13
19 13 23 29 19 19 19 19 16 16 16 19 10 0 0 0 0 0 0 0 6 3 6 13 19 16 16 13 13 13 13 16 19 19 13 13 10 13 19 19 19 13 13
19 16 19 19 13 16 16 16 16 16 16 19 13 3 0 0 0 0 0 0 6 6 6 10 13 13 19 13 13 16 16 19 19 23 16 16 13 10 10 13 10 6 3
16 13 10 13 10 6 10 10 6 10 10 13 16 10 3 0 3 0 0 0 6 6 6 6 6 13 16 16 16 16 16 13 16 16 13 13 13 13 13 10 6 3 3
6 3 6 6 6 6 10 10 6 3 3 3 10 6 6 3 3 3 3 3 6 3 3 3 3 3 13 16 13 16 16 16 23 23 13 13 6 10 10 10 10 3 3
3 6 6 10 13 13 13 13 3 3 3 3 3 3 3 6 6 6 6 3 3 3 3 3 3 3 6 13 13 13 16 13 16 19 19 16 13 10 6 6 3 3 3
10 3 3 6 10 3 6 6 6 6 6 3 3 3 3 3 10 6 6 6 6 6 6 3 3 3 3 6 16 16 10 10 10 13 10 10 10 10 6 6 3 3 3
6 0 0 0 6 6 3 10 6 3 0 0 0 0 0 16 6 3 0 0 3 3 3 6 6 3 6 10 10 13 10 10 10 6 10 6 6 6 3 3 3 0 0
6 3 0 3 3 3 6 6 3 3 0 0 3 0 6 6 6 3 3 3 3 0 3 3 3 6 6 10 10 10 3 3 0 6 6 6 6 6 6 6 3 3 0
3 3 0 3 6 6 6 6 6 3 0 0 0 10 13 6 6 6 10 3 3 3 3 3 3 3 6 10 10 10 3 0 0 0 3 6 6 6 6 6 6 3 6
Height
5897 5896 5895 5895 5893 5892 5891 5889 5888 5886 5884 5882 5880 5878 5876 5874 5872 5870 5868 5865 5863 5861 5859 5857 5855 5852 5850 5849 5846 5844 5842 5840 5838 5835 5833 5830 5828 5827 5825 5823 5821 5819 5817
5894 5894 5893 5892 5891 5890 5888 5887 5885 5884 5882 5880 5878 5876 5874 5871 5869 5867 5864 5862 5860 5858 5855 5853 5851 5849 5846 5844 5842 5840 5837 5834 5832 5830 5828 5826 5823 5821 5819 5817 5815 5813 5811
5891 5890 5890 5889 5888 5887 5885 5884 5883 5881 5879 5877 5875 5873 5870 5868 5866 5863 5861 5858 5856 5854 5851 5849 5847 5845 5842 5840 5837 5835 5832 5829 5827 5825 5822 5820 5817 5815 5813 5811 5809 5807 5805
5887 5887 5886 5885 5884 5883 5882 5880 5879 5877 5875 5873 5871 5869 5867 5864 5862 5860 5857 5855 5852 5849 5847 5845 5842 5840 5837 5835 5832 5830 5827 5824 5821 5819 5816 5814 5812 5809 5807 5805 5803 5801 5799
5884 5883 5882 5881 5880 5879 5878 5876 5874 5873 5871 5869 5867 5865 5862 5860 5858 5855 5853 5850 5848 5845 5843 5840 5837 5835 5832 5830 5827 5824 5821 5818 5816 5813 5810 5808 5806 5803 5801 5799 5797 5795 5793
5879 5878 5877 5876 5875 5874 5872 5871 5869 5867 5865 5863 5861 5859 5857 5855 5853 5850 5848 5845 5843 5840 5838 5835 5832 5830 5827 5824 5821 5818 5815 5812 5809 5807 5804 5802 5800 5797 5795 5792 5790 5789 5787
5875 5873 5872 5871 5869 5868 5867 5865 5864 5862 5860 5858 5856 5854 5852 5850 5847 5845 5842 5840 5837 5835 5832 5829 5827 5824 5821 5818 5815 5812 5809 5806 5803 5800 5798 5796 5793 5791 5789 5786 5784 5782 5780
5869 5868 5866 5865 5863 5862 5861 5860 5858 5856 5854 5852 5850 5848 5846 5843 5841 5839 5836 5833 5831 5828 5826 5823 5821 5818 5815 5812 5809 5806 5803 5800 5797 5794 5792 5789 5787 5785 5782 5780 5777 5775 5773
5863 5861 5860 5859 5857 5856 5855 5853 5851 5849 5847 5845 5843 5841 5839 5837 5834 5832 5829 5827 5824 5822 5819 5816 5814 5811 5808 5805 5802 5799 5797 5794 5790 5788 5785 5783 5780 5778 5776 5773 5771 5768 5766
5856 5855 5854 5852 5851 5850 5848 5846 5844 5842 5840 5838 5836 5834 5832 5830 5827 5824 5821 5819 5817 5815 5812 5809 5806 5803 5801 5798 5795 5792 5790 5787 5784 5781 5779 5776 5774 5772 5769 5767 5764 5761 5759
5848 5847 5846 5845 5843 5842 5840 5838 5837 5835 5833 5831 5829 5826 5824 5822 5820 5817 5814 5811 5809 5807 5804 5802 5799 5796 5793 5790 5787 5785 5782 5779 5776 5774 5772 5769 5767 5765 5762 5759 5757 5754 5752
5840 5839 5838 5836 5835 5834 5832 5830 5828 5826 5824 5822 5820 5818 5816 5814 5812 5809 5806 5804 5801 5799 5796 5794 5791 5788 5785 5783 5780 5777 5775 5772 5769 5767 5764 5762 5760 5757 5755 5752 5750 5747 5744
5832 5830 5829 5828 5826 5825 5823 5822 5820 5818 5816 5813 5811 5810 5808 5806 5803 5801 5799 5796 5793 5791 5788 5786 5783 5780 5777 5775 5773 5770 5767 5765 5762 5760 5758 5755 5753 5750 5748 5745 5743 5740 5738
5822 5821 5820 5819 5817 5816 5814 5813 5811 5809 5807 5805 5802 5800 5799 5797 5795 5793 5791 5788 5785 5783 5780 5778 5775 5772 5770 5767 5765 5763 5760 5757 5755 5753 5751 5748 5746 5743 5741 5738 5735 5733 5731
5813 5812 5811 5809 5808 5807 5805 5803 5802 5800 5798 5796 5793 5791 5790 5788 5786 5784 5782 5780 5777 5775 5772 5770 5767 5765 5762 5760 5757 5755 5753 5751 5748 5746 5743 5741 5739 5736 5734 5731 5728 5726 5724
5803 5802 5801 5800 5798 5797 5795 5794 5792 5790 5788 5787 5785 5782 5781 5779 5777 5775 5773 5770 5768 5766 5764 5761 5759 5757 5754 5752 5750 5747 5745 5743 5740 5738 5736 5733 5731 5729 5727 5724 5721 5719 5716
5794 5792 5791 5790 5788 5787 5785 5783 5782 5780 5778 5776 5775 5773 5771 5769 5767 5765 5763 5761 5759 5756 5755 5753 5751 5749 5746 5744 5741 5739 5737 5734 5732 5730 5728 5725 5724 5722 5719 5717 5715 5712 5709
5784 5783 5782 5781 5779 5777 5775 5774 5772 5770 5768 5766 5764 5762 5761 5759 5757 5755 5753 5751 5750 5748 5746 5744 5742 5740 5738 5735 5733 5731 5729 5726 5724 5722 5720 5718 5716 5714 5712 5710 5707 5705 5702
5776 5774 5773 5771 5769 5768 5766 5764 5762 5760 5758 5756 5754 5752 5751 5749 5747 5745 5743 5742 5740 5739 5737 5735 5733 5731 5729 5727 5725 5723 5720 5718 5716 5714 5712 5710 5708 5707 5704 5702 5700 5697 5695
5766 5765 5763 5761 5759 5758 5756 5754 5752 5750 5748 5746 5744 5742 5740 5738 5736 5735 5733 5732 5730 5729 5728 5726 5724 5722 5721 5719 5717 5715 5712 5710 5708 5706 5704 5702 5700 5698 5696 5694 5692 5690 5687
5757 5756 5754 5752 5750 5748 5746 5744 5742 5740 5737 5736 5734 5732 5730 5729 5727 5725 5724 5722 5721 5720 5718 5717 5716 5714 5712 5710 5708 5707 5705 5703 5701 5699 5697 5695 5693 5691 5689 5686 5684 5682 5680
5747 5746 5744 5743 5741 5739 5737 5735 5733 5731 5728 5726 5724 5722 5720 5719 5718 5716 5715 5713 5712 5711 5710 5708 5707 5705 5703 5702 5700 5699 5697 5695 5693 5691 5689 5687 5685 5683 5680 5678 5676 5674 5672
5738 5736 5735 5733 5731 5729 5727 5726 5724 5722 5720 5718 5716 5714 5712 5711 5710 5708 5707 5705 5704 5703 5701 5700 5699 5697 5695 5694 5692 5691 5689 5687 5685 5683 5681 5679 5677 5675 5673 5671 5669 5667 5665
5729 5727 5726 5724 5722 5720 5718 5717 5715 5713 5712 5710 5708 5706 5705 5704 5702 5701 5699 5698 5696 5695 5693 5692 5690 5689 5688 5686 5685 5683 5681 5679 5677 5675 5673 5671 5669 5667 5665 5663 5661 5660 5658
5719 5718 5716 5715 5713 5712 5710 5708 5707 5705 5704 5702 5701 5699 5698 5696 5695 5694 5692 5691 5689 5688 5686 5684 5683 5681 5680 5678 5676 5674 5673 5671 5669 5667 5665 5663 5661 5659 5657 5656 5654 5652 5650
5710 5708 5707 5706 5704 5703 5702 5700 5699 5697 5696 5695 5693 5692 5690 5689 5688 5686 5685 5684 5682 5681 5679 5677 5675 5673 5672 5670 5668 5666 5664 5663 5661 5659 5657 5655 5653 5651 5650 5648 5646 5645 5643
Wind_Speed
13 13 13 13 13 12 13 14 14 14 14 14 14 15 16 16 16 16 16 16 17 17 17 17 17 17 17 18 19 19 20 20 20 21 21 21 21 21 21 22 21 21 21
15 15 14 14 14 14 15 15 16 16 16 16 16 17 17 18 17 17 17 17 18 18 18 18 18 19 19 19 20 20 21 21 21 21 21 22 22 21 21 22 22 22 22
18 18 16 16 16 17 17 17 17 17 18 18 19 19 19 19 19 19 18 18 18 19 19 20 20 20 20 20 21 21 21 22 22 22 21 22 22 22 22 21 21 21 22
20 20 19 19 19 19 19 19 19 19 20 20 21 21 21 20 20 21 20 20 20 20 20 21 21 22 22 22 22 22 23 23 23 23 22 22 23 23 23 22 22 23 23
21 21 21 21 21 21 21 21 22 22 23 23 23 23 23 22 22 22 22 22 21 21 22 22 22 22 23 23 23 24 24 24 24 24 23 23 23 24 24 24 24 24 24
21 22 22 22 22 22 22 22 23 24 25 25 25 24 23 23 23 23 23 23 23 23 23 23 23 23 24 23 24 24 24 24 23 23 23 23 24 24 24 24 24 24 25
22 23 23 23 24 24 23 24 25 25 25 25 25 25 25 25 25 25 24 24 24 24 24 24 24 24 24 24 24 24 24 24 24 24 23 24 24 24 24 24 25 25 25
24 24 25 25 24 25 25 26 26 27 27 27 26 26 26 26 26 26 26 26 26 25 25 25 25 25 25 25 25 25 25 25 25 25 25 25 25 25 25 25 25 25 25
26 26 26 26 27 27 27 27 28 28 28 28 28 28 28 27 27 27 28 27 27 26 26 27 27 27 27 27 27 26 26 26 26 26 26 26 26 26 26 25 25 26 25
27 28 28 28 28 29 29 29 29 30 30 30 30 30 29 28 28 28 29 29 28 28 27 28 28 29 29 29 28 28 27 27 27 27 26 26 26 26 26 26 26 26 26
29 29 29 29 30 30 31 31 31 31 31 31 31 30 29 28 28 28 29 29 29 29 29 29 29 29 29 29 29 28 28 27 27 27 27 27 27 27 27 27 27 27 27
30 30 31 32 32 32 32 33 33 33 33 32 32 31 29 29 29 29 29 29 30 30 30 30 30 29 29 29 28 28 28 28 27 28 28 27 27 27 27 27 27 28 27
32 32 32 32 33 34 34 34 34 34 34 34 32 31 30 29 29 29 30 30 30 30 30 30 29 29 28 28 28 28 28 28 27 27 26 26 26 26 27 27 27 27 27
33 33 33 33 33 34 35 35 35 36 35 35 33 32 32 30 29 30 31 31 31 31 31 30 29 28 28 28 28 27 27 27 26 26 26 26 26 26 26 27 27 26 26
35 34 34 34 34 35 35 35 36 35 34 33 32 33 31 31 31 31 31 31 32 32 31 30 29 29 29 28 28 28 27 27 27 27 27 27 27 27 27 27 27 27 27
33 33 33 34 34 35 35 35 35 35 34 35 35 33 33 33 32 32 32 32 32 32 30 29 29 29 29 29 28 28 28 28 28 28 28 27 27 27 27 27 27 27 26
33 33 33 32 33 34 34 34 34 34 35 35 35 35 35 34 33 33 33 33 33 32 31 30 30 30 30 29 29 29 29 28 28 28 28 27 26 27 27 27 27 26 26
31 31 31 31 32 33 34 34 35 35 34 35 36 35 34 33 33 33 33 33 32 31 31 30 30 30 30 30 29 29 29 28 28 28 28 27 27 27 27 27 27 27 27
32 32 32 32 33 34 35 35 36 36 35 36 35 34 34 33 32 32 32 32 31 31 31 31 30 30 29 30 29 29 29 28 28 28 27 26 27 27 28 28 27 27 28
32 32 33 34 34 34 34 34 35 35 35 35 34 33 33 32 31 31 31 31 31 31 31 30 30 30 30 29 28 28 28 27 28 28 28 27 28 28 28 28 28 28 27
32 32 33 34 34 35 35 35 35 35 34 33 33 33 32 31 31 30 30 30 30 30 30 30 30 30 29 28 27 26 27 27 27 27 27 27 28 28 27 27 27 27 27
33 34 34 33 34 34 35 34 34 33 32 32 32 30 29 29 29 29 29 29 29 29 29 29 30 29 28 27 27 27 27 27 27 27 27 28 28 28 27 27 26 26 26
33 33 33 33 34 34 33 32 31 31 30 30 29 29 28 28 28 28 28 28 28 28 29 28 27 26 26 25 25 26 27 27 27 27 28 28 28 28 27 26 25 25 25
32 32 32 32 32 31 30 30 29 28 28 27 27 27 27 26 26 26 26 26 26 26 26 26 26 25 25 25 26 27 28 28 28 27 27 27 28 27 27 26 25 25 25
31 31 31 30 30 29 28 27 26 26 26 26 26 26 26 26 26 26 25 25 25 25 24 24 25 25 26 26 26 27 27 28 28 27 27 27 27 27 26 26 25 25 25
30 30 29 29 28 27 27 27 26 25 26 26 26 26 26 25 25 25 25 25 25 26 26 26 26 25 25 26 26 26 26 27 27 27 27 26 26 26 26 26 25 25 25
Wind_Direction
309 312 312 311 312 313 315 317 319 322 324 322 322 323 325 325 324 322 321 321 320 318 318 317 316 314 315 314 314 313 312 310 308 307 305 304 302 300 299 300 300 300 300
306 306 304 306 307 308 309 311 314 315 317 318 319 320 321 322 320 319 318 317 317 317 315 315 315 314 313 312 313 314 312 310 308 306 305 303 302 300 299 299 298 298 299
300 299 297 299 302 303 305 305 308 311 312 314 316 316 317 318 318 317 317 315 315 315 313 312 311 310 310 310 311 311 310 309 308 307 305 302 301 299 298 298 298 298 299
295 295 294 297 300 302 303 302 303 306 308 311 313 313 314 315 316 317 316 314 313 313 312 312 311 309 309 308 309 309 309 309 307 306 306 305 303 300 298 299 299 298 299
295 294 293 294 294 297 298 300 301 304 306 308 309 311 312 313 313 314 314 313 312 312 310 309 311 310 310 309 310 311 310 309 307 305 305 305 305 302 300 299 298 298 299
296 296 295 294 294 296 297 298 300 301 303 305 306 307 309 310 309 309 311 311 309 309 310 310 310 310 311 310 311 310 309 309 307 306 305 305 305 304 301 299 299 298 299
294 294 293 293 294 295 297 299 299 300 302 302 304 306 306 305 305 306 306 307 306 305 306 307 306 307 308 309 309 309 308 308 307 306 305 304 304 304 302 301 299 299 300
289 290 292 293 294 294 294 297 298 300 301 301 301 303 304 304 303 302 303 303 304 305 305 305 305 304 305 305 305 306 305 306 306 305 304 303 303 303 303 301 300 299 299
286 287 288 290 291 291 292 294 295 297 298 300 301 300 300 300 301 300 300 301 301 302 302 303 303 303 302 302 301 302 303 303 303 303 302 302 302 302 303 303 300 300 300
284 284 284 287 289 289 290 291 293 295 296 297 299 299 299 299 299 299 298 298 300 301 301 301 302 302 300 299 299 299 300 301 301 301 301 301 301 301 301 301 301 301 301
282 283 283 284 285 286 287 288 289 291 293 294 296 297 298 299 299 299 299 299 299 300 300 301 301 301 300 299 298 298 299 300 299 299 299 301 300 300 300 300 300 300 301
281 281 282 282 283 284 285 286 287 289 290 292 293 295 295 295 296 298 299 299 299 299 299 300 300 300 300 299 299 298 299 300 299 299 300 301 300 299 299 299 300 301 301
280 281 280 281 281 282 284 286 287 288 290 290 290 292 293 292 295 296 297 298 298 298 298 299 299 299 299 299 298 299 300 300 299 298 299 300 300 299 298 299 299 300 299
278 279 281 282 283 283 283 284 287 287 289 290 290 292 294 295 294 295 295 296 298 298 297 297 297 298 298 297 297 298 299 298 298 298 297 298 300 301 299 299 299 300 300
278 279 281 282 282 281 283 284 285 286 287 289 290 290 292 294 294 293 294 296 296 296 296 294 295 296 297 297 296 296 298 299 298 299 299 299 299 301 301 300 299 299 299
278 279 280 282 283 283 284 284 285 285 286 288 289 290 291 292 293 292 293 293 294 295 294 293 294 295 296 296 295 295 296 297 297 298 299 298 298 299 300 300 299 299 299
279 279 280 282 283 283 284 285 284 284 287 289 289 289 290 291 291 291 290 290 291 292 292 292 292 294 295 295 295 295 295 295 296 297 297 297 298 298 298 298 299 299 299
280 280 281 282 283 284 286 287 288 288 288 290 290 290 291 291 290 289 289 289 289 289 290 291 291 292 293 294 295 295 295 295 295 296 296 296 296 296 296 297 297 298 297
278 279 281 284 286 285 286 287 288 288 289 290 290 290 290 290 290 289 288 289 288 288 289 289 290 291 292 293 294 295 295 294 295 294 294 294 295 296 297 297 296 296 296
279 281 282 284 286 286 286 287 287 287 288 289 289 290 290 290 290 289 288 287 287 287 288 289 290 290 290 291 291 292 294 294 293 292 293 293 294 295 296 297 297 297 297
280 283 284 286 287 287 287 287 287 288 289 289 289 289 290 291 291 290 289 288 287 287 287 287 289 289 289 289 289 290 291 292 292 293 293 293 294 294 295 296 296 296 297
281 282 283 285 287 286 287 287 288 289 290 291 290 290 291 291 292 292 291 289 288 287 287 288 289 288 288 289 289 290 291 291 291 292 293 294 294 294 294 295 296 297 297
280 282 283 285 286 287 287 288 288 290 291 291 291 292 291 290 292 294 293 290 288 288 290 290 288 288 288 288 289 290 291 292 292 292 293 293 293 293 293 294 295 296 296
281 282 283 285 287 288 289 290 290 290 291 290 289 290 290 290 290 292 292 291 291 292 291 290 290 291 290 289 289 290 291 293 294 294 295 295 294 293 292 291 292 294 295
282 283 284 286 286 288 289 289 289 289 289 288 287 288 288 288 288 289 290 290 291 293 295 294 294 293 292 290 290 291 291 293 293 293 293 293 294 294 293 292 293 294 295
283 284 284 285 286 286 286 287 286 287 288 288 288 288 288 288 288 289 290 291 291 292 293 294 294 294 293 291 291 291 290 291 292 292 292 293 293 293 293 294 294 293 293